TimeCDT,TemperatureF,Dew PointF,Humidity,Sea Level PressureIn,VisibilityMPH,Wind Direction,Wind SpeedMPH,Gust SpeedMPH,PrecipitationIn,Events,Conditions,WindDirDegrees,DateUTC
12:15 AM,70.7,70.7,100,30.01,3.0,Calm,Calm,-,N/A,,Mostly Cloudy,0,2013-06-19 05:15:00
12:35 AM,70.0,70.0,100,30.02,0.8,Calm,Calm,-,N/A,,Overcast,0,2013-06-19 05:35:00
12:55 AM,70.0,70.0,100,30.01,0.5,Calm,Calm,-,N/A,Fog,Fog,0,2013-06-19 05:55:00
1:15 AM,70.0,70.0,100,30.01,0.2,Calm,Calm,-,N/A,Fog,Fog,0,2013-06-19 06:15:00
1:35 AM,70.2,70.2,100,30.01,0.2,Calm,Calm,-,N/A,Fog,Fog,0,2013-06-19 06:35:00
1:55 AM,69.8,69.8,100,30.00,0.2,Calm,Calm,-,N/A,Fog,Fog,0,2013-06-19 06:55:00
2:15 AM,69.6,69.6,100,30.00,0.2,Calm,Calm,-,N/A,Fog,Fog,0,2013-06-19 07:15:00
2:35 AM,69.4,69.4,100,30.00,0.2,Calm,Calm,-,N/A,Fog,Fog,0,2013-06-19 07:35:00
2:55 AM,69.3,69.3,100,30.00,0.5,Calm,Calm,-,N/A,Fog,Fog,0,2013-06-19 07:55:00
3:15 AM,69.3,69.3,100,30.00,0.2,Calm,Calm,-,N/A,Fog,Fog,0,2013-06-19 08:15:00
3:35 AM,69.1,69.1,100,30.00,0.2,Calm,Calm,-,N/A,Fog,Fog,0,2013-06-19 08:35:00
3:55 AM,68.9,68.9,100,30.01,0.2,Calm,Calm,-,N/A,Fog,Fog,0,2013-06-19 08:55:00
4:15 AM,68.9,68.9,100,30.00,0.2,Calm,Calm,-,N/A,Fog,Fog,0,2013-06-19 09:15:00
4:35 AM,68.7,68.7,100,30.00,0.2,Calm,Calm,-,N/A,Fog,Fog,0,2013-06-19 09:35:00
4:55 AM,68.4,68.4,100,30.01,0.2,Calm,Calm,-,N/A,Fog,Fog,0,2013-06-19 09:55:00
5:15 AM,68.0,68.0,100,30.01,0.2,Calm,Calm,-,N/A,Fog,Fog,0,2013-06-19 10:15:00
5:35 AM,68.0,68.0,100,30.02,0.2,Calm,Calm,-,N/A,Fog,Fog,0,2013-06-19 10:35:00
5:55 AM,68.0,68.0,100,30.03,0.2,Calm,Calm,-,N/A,Fog,Fog,0,2013-06-19 10:55:00
6:15 AM,68.2,68.2,100,30.04,0.2,Calm,Calm,-,N/A,Fog,Fog,0,2013-06-19 11:15:00
6:35 AM,68.0,68.0,100,30.04,0.2,Calm,Calm,-,N/A,Fog,Fog,0,2013-06-19 11:35:00
6:55 AM,68.0,68.0,100,30.05,0.2,Calm,Calm,-,N/A,Fog,Fog,0,2013-06-19 11:55:00
7:15 AM,68.9,68.9,100,30.06,0.2,Calm,Calm,-,0.01,Fog,Fog,0,2013-06-19 12:15:00
7:35 AM,69.1,69.1,100,30.06,0.2,Calm,Calm,-,0.01,Fog,Fog,0,2013-06-19 12:35:00
7:55 AM,69.8,69.8,100,30.07,2.0,Calm,Calm,-,0.01,,Overcast,0,2013-06-19 12:55:00
8:15 AM,70.0,70.0,100,30.07,1.2,Calm,Calm,-,N/A,,Overcast,0,2013-06-19 13:15:00
8:35 AM,70.3,70.3,100,30.07,2.5,Calm,Calm,-,N/A,,Overcast,0,2013-06-19 13:35:00
8:55 AM,70.7,70.7,100,30.08,7.0,Calm,Calm,-,N/A,,Overcast,0,2013-06-19 13:55:00
9:15 AM,71.2,71.2,100,30.08,3.0,Calm,Calm,-,N/A,,Overcast,0,2013-06-19 14:15:00
9:35 AM,72.5,72.5,100,30.08,7.0,Calm,Calm,-,N/A,,Overcast,0,2013-06-19 14:35:00
9:55 AM,72.7,72.7,100,30.08,10.0,Calm,Calm,-,N/A,,Overcast,0,2013-06-19 14:55:00
10:15 AM,73.6,73.6,100,30.08,10.0,Calm,Calm,-,N/A,,Overcast,0,2013-06-19 15:15:00
10:35 AM,73.9,73.9,100,30.08,10.0,East,3.5,-,N/A,,Overcast,80,2013-06-19 15:35:00
10:55 AM,74.1,74.1,100,30.08,10.0,Calm,Calm,-,N/A,,Overcast,0,2013-06-19 15:55:00
11:15 AM,74.3,74.3,100,30.08,10.0,Calm,Calm,-,N/A,,Overcast,0,2013-06-19 16:15:00
11:35 AM,77.9,77.9,100,30.08,10.0,ENE,4.6,-,N/A,,Overcast,60,2013-06-19 16:35:00
11:55 AM,79.0,72.3,80,30.09,10.0,Calm,Calm,-,N/A,,Mostly Cloudy,0,2013-06-19 16:55:00
12:15 PM,80.8,70.0,70,30.08,10.0,Calm,Calm,-,N/A,,Mostly Cloudy,0,2013-06-19 17:15:00
12:35 PM,82.4,70.0,66,30.08,10.0,ESE,4.6,-,N/A,,Scattered Clouds,110,2013-06-19 17:35:00
12:55 PM,82.4,70.0,66,30.07,10.0,Calm,Calm,-,N/A,,Scattered Clouds,0,2013-06-19 17:55:00
1:15 PM,83.5,69.8,63,30.06,10.0,Calm,Calm,-,N/A,,Scattered Clouds,0,2013-06-19 18:15:00
1:35 PM,84.0,67.6,58,30.06,10.0,Calm,Calm,-,N/A,,Scattered Clouds,0,2013-06-19 18:35:00
1:55 PM,85.1,70.0,60,30.05,10.0,Calm,Calm,-,N/A,,Mostly Cloudy,0,2013-06-19 18:55:00
2:15 PM,83.8,67.6,58,30.05,10.0,Calm,Calm,-,N/A,,Scattered Clouds,0,2013-06-19 19:15:00
2:35 PM,85.1,68.2,57,30.04,10.0,Calm,Calm,-,N/A,,Scattered Clouds,0,2013-06-19 19:35:00
2:55 PM,86.0,64.8,49,30.04,10.0,Calm,Calm,-,N/A,,Clear,0,2013-06-19 19:55:00
3:15 PM,86.5,66.9,52,30.04,10.0,Calm,Calm,-,N/A,,Scattered Clouds,0,2013-06-19 20:15:00
3:35 PM,86.7,65.8,50,30.04,10.0,Calm,Calm,-,N/A,,Scattered Clouds,0,2013-06-19 20:35:00
3:55 PM,87.3,66.7,50,30.03,10.0,ENE,3.5,-,N/A,,Scattered Clouds,70,2013-06-19 20:55:00
4:15 PM,86.7,66.2,50,30.02,10.0,Calm,Calm,-,N/A,,Clear,0,2013-06-19 21:15:00
4:35 PM,86.4,66.6,51,30.02,10.0,Calm,Calm,-,N/A,,Scattered Clouds,0,2013-06-19 21:35:00
4:55 PM,87.1,66.9,51,30.01,10.0,Calm,Calm,-,N/A,,Clear,0,2013-06-19 21:55:00
5:15 PM,86.7,68.2,54,30.01,10.0,Calm,Calm,-,N/A,,Clear,0,2013-06-19 22:15:00
5:35 PM,87.1,67.3,52,30.01,10.0,East,3.5,-,N/A,,Scattered Clouds,80,2013-06-19 22:35:00
5:55 PM,86.4,67.1,52,30.01,10.0,Calm,Calm,-,N/A,,Clear,0,2013-06-19 22:55:00
6:15 PM,86.9,67.3,52,30.01,10.0,Calm,Calm,-,N/A,,Scattered Clouds,0,2013-06-19 23:15:00
6:35 PM,86.7,68.7,55,30.01,10.0,Calm,Calm,-,N/A,,Mostly Cloudy,0,2013-06-19 23:35:00
6:55 PM,83.3,70.3,65,30.01,10.0,Calm,Calm,-,N/A,,Scattered Clouds,0,2013-06-19 23:55:00
7:15 PM,79.3,77.0,93,30.01,10.0,Calm,Calm,-,N/A,,Scattered Clouds,0,2013-06-20 00:15:00
7:35 PM,79.5,77.5,94,30.02,10.0,Calm,Calm,-,N/A,,Scattered Clouds,0,2013-06-20 00:35:00
7:55 PM,77.9,77.9,100,30.01,10.0,Calm,Calm,-,N/A,,Clear,0,2013-06-20 00:55:00
8:15 PM,77.5,77.5,100,30.02,10.0,Calm,Calm,-,N/A,,Clear,0,2013-06-20 01:15:00
8:35 PM,76.1,76.1,100,30.03,7.0,Calm,Calm,-,N/A,,Clear,0,2013-06-20 01:35:00
8:55 PM,75.2,75.2,100,30.03,5.0,Calm,Calm,-,N/A,,Clear,0,2013-06-20 01:55:00
9:15 PM,75.2,75.2,100,30.03,7.0,Calm,Calm,-,N/A,,Clear,0,2013-06-20 02:15:00
9:35 PM,74.7,74.7,100,30.04,7.0,Calm,Calm,-,N/A,,Clear,0,2013-06-20 02:35:00
9:55 PM,74.7,74.7,100,30.04,10.0,Calm,Calm,-,N/A,,Clear,0,2013-06-20 02:55:00
10:15 PM,73.8,73.8,100,30.04,7.0,Calm,Calm,-,N/A,,Clear,0,2013-06-20 03:15:00
10:35 PM,73.4,73.4,100,30.05,5.0,Calm,Calm,-,N/A,,Clear,0,2013-06-20 03:35:00
10:55 PM,73.0,73.0,100,30.05,5.0,Calm,Calm,-,N/A,,Clear,0,2013-06-20 03:55:00
11:15 PM,72.5,72.5,100,30.06,5.0,Calm,Calm,-,N/A,,Clear,0,2013-06-20 04:15:00
11:35 PM,72.0,72.0,100,30.06,4.0,Calm,Calm,-,N/A,,Clear,0,2013-06-20 04:35:00
11:55 PM,72.5,72.5,100,30.07,7.0,Calm,Calm,-,N/A,,Clear,0,2013-06-20 04:55:00